Location: �mondeville
(49.4591°N, 1.3431°W)
Time: 01:05:38
(UTC+00:00)

Aureole 1 Rocket - Pass Details

Date: 22 October 2019
Orbit: 380 x 1382 km, 73.9° (Epoch: 14 November)

Event Time Altitude Azimuth Distance (km) Brightness Sun altitude
Exits shadow 04:33:05 27° 321° (NW) 1,340 4.5 -20.7°
Drops below altitude 10° 04:36:07 10° 3° (N) 1,991 5.8 -20.3°
Sets 04:38:21 0° 15° (NNE) 2,759 6.7 -19.9°
